Flag for Poland Weather past 2 weeks in Włocławek, Poland

Now
50 °F

Passing clouds.


Feels Like: 50 °F
Forecast: 51 / 73 °F
Wind: 2 mph from East

Location: Plock

Current Time: Sep 17, 2014 at 3:30:00 AM

Latest Report: Sep 17, 2014 at 2:00 AM


Visibility: 13 mi

Pressure: 30.23 "Hg

Humidity: 86%

Dew point: 46 °F

Location of WłocławekLocation

Historic Weather in Włocławek — Graph

°F

Włocławek temperature yesterday

Maximum temperature yesterday: 70 °F (at 3:00 PM)
Minimum temperature yesterday: 49 °F (at 6:00 AM)
Average temperature yesterday: 59 °F

Past Weeks' High & Low Weather Summary

 TemperatureHumidityPressure
High79 °F (Sep 13, 3:00 PM)99% (Sep 9, 2:00 AM)30.33 "Hg (Sep 9, 2:00 AM)
Low48 °F (Sep 6, 6:00 AM)37% (Sep 16, 4:00 PM)29.94 "Hg (Sep 7, 4:00 PM)
Average62 °F74%30.10 "Hg
* Reported Sep 2 2:00 AM — Sep 17 2:00 AM, Włocławek, Weather by CustomWeather, © 2014

Note: Actual official high and low records may vary slightly from our data, if they occured in-between our weather recording intervals... More about our weather records

Advertising

Włocławek weather history for previous 24 hours

 ConditionsComfort  
Time TempWeatherWind HumidityBarometerVisibility
2:00 AM
Sep 17
50 °FPassing clouds.2 mph86%30.23 "Hg12 mi
1:00 AM50 °FPassing clouds.2 mph85%30.24 "Hg9 mi
12:00 AM53 °FPassing clouds.2 mph79%30.24 "Hg7 mi
11:00 PM
Sep 16
54 °FPassing clouds.2 mph75%30.24 "Hg12 mi
10:00 PM56 °FPassing clouds.3 mph69%30.23 "Hg19 mi
9:00 PM57 °FPassing clouds.2 mph67%30.23 "Hg19 mi
8:00 PM58 °FPassing clouds.2 mph68%30.21 "Hg12 mi
7:00 PM62 °FPassing clouds.2 mph56%30.20 "Hg19 mi
6:00 PM67 °FPassing clouds.5 mph44%30.19 "Hg25 mi
5:00 PM69 °FPassing clouds.6 mph39%30.19 "Hg19 mi
4:00 PM70 °FPassing clouds.6 mph37%30.19 "Hg19 mi
3:00 PM70 °FPassing clouds.6 mph39%30.20 "Hg19 mi
2:00 PM69 °FPassing clouds.5 mph46%30.21 "Hg19 mi
1:00 PM68 °FPassing clouds.5 mph49%30.23 "Hg19 mi
12:00 PM68 °FPassing clouds.5 mph48%30.24 "Hg19 mi
11:00 AM65 °FPassing clouds.5 mph61%30.25 "Hg12 mi
10:00 AM60 °FPassing clouds.5 mph70%30.25 "Hg12 mi
9:00 AM56 °FPassing clouds.3 mph76%30.25 "Hg12 mi
8:00 AM53 °FPassing clouds.3 mph84%30.25 "Hg12 mi
7:00 AM49 °FPassing clouds.2 mph89%30.25 "Hg11 mi
6:00 AM49 °FPassing clouds.2 mph87%30.24 "Hg12 mi
5:00 AM50 °FClear.2 mph83%30.23 "Hg19 mi
4:00 AM51 °FPassing clouds.3 mph79%30.23 "Hg28 mi
3:00 AM51 °FPassing clouds.3 mph77%30.23 "Hg25 mi
Weather by CustomWeather, © 2014

See weather overviewHow to use our weather pages